Regional Weather Roundup
Issued by NWS Northern Indiana

Home | Current Version | Previous Version | Text Only | Print | Product List | Glossary On
Versions: 1 2 3 4 5 6 7 8 9 10 11 12 13 14 15 16 17 18 19 20 21 22 23 24 25 26 27 28 29 30 31 32 33 34 35 36 37 38 39 40 41 42 43 44 45 46 47 48 49 50
000
ASUS43 KIWX 290710
RWRIWX

KIWX WEATHER ROUNDUP
NATIONAL WEATHER SERVICE NORTHERN INDIANA
300 AM EDT SAT AUG 29 2015

NOTE: "FAIR" INDICATES FEW OR NO CLOUDS BELOW 12,000 FEET WITH NO
SIGNIFICANT WEATHER AND/OR OBSTRUCTIONS TO VISIBILITY.

* THESE STATIONS ARE NOT UNDER NWS QUALITY CONTROL. THEY ALSO MAY NOT
  REPORT WEATHER SUCH AS PRECIPITATION OR FOG.

INZ001>027-290800-
NORTHERN INDIANA

CITY           SKY/WX    TMP DP  RH WIND       PRES   REMARKS
GARY*          PTCLDY    64  61  89 SE5       30.08F
VALPARAISO     MOCLDY    64  59  83 SE3       30.09S
MICHIGAN CITY* MOCLDY    64  55  72 CALM      30.09S
LAPORTE*       MOCLDY    64  64 100 SE3       30.10F
KNOX*          CLOUDY    61  59  94 CALM      30.09S
SOUTH BEND     CLOUDY    67  58  72 SE8       30.10F
GOSHEN         MOCLDY    65  59  81 SE8       30.11F
MONTICELLO*    CLOUDY    65  60  81 SE3       30.07F
LOGANSPORT*    CLOUDY    59  55  88 SE3       30.10F FOG
ROCHESTER*     CLOUDY    63  61  94 CALM      30.10F
WARSAW*        MOCLDY    63  57  82 SE3       30.11F
ANGOLA*        CLEAR     63  54  72 CALM      30.13F
FORT WAYNE     CLOUDY    65  58  78 SE3       30.12F
HUNTINGTON*    CLOUDY    64  55  74 CALM      30.11F
PERU/GRISSOM   CLOUDY    64  58  83 SE6       30.09F
MARION*        CLOUDY    63  52  67 SE6       30.11F

$$
INZ028>050-290800-
CENTRAL INDIANA

CITY           SKY/WX    TMP DP  RH WIND       PRES   REMARKS
LAFAYETTE      CLOUDY    63  58  83 SE5       30.07F
KOKOMO*        CLOUDY    61  10  13 SE6       30.10F
MUNCIE*        MOCLDY    64  58  80 S3        30.11F
INDIANAPOLIS   MOCLDY    66  58  75 SE5       30.08S

$$
MIZ043>046-050>051-056>058-064>065-071>073-077>080-290800-
SOUTHWEST LOWER MICHIGAN

CITY           SKY/WX    TMP DP  RH WIND       PRES   REMARKS
BATTLE CREEK   MOCLDY    67  61  81 SE3       30.13F
BENTON HARBOR  CLOUDY    66  61  84 SE6       30.09F
COLDWATER*     MOCLDY    64  60  85 SE3       30.13F
HILLSDALE*     CLOUDY    64  61  91 SE3       30.15S
HOLLAND        CLOUDY    66  62  87 E6        30.11F
GRAND RAPIDS   CLOUDY    63  61  93 NE7       30.12F
KALAMAZOO      MOCLDY    66  60  81 S5        30.12F
STURGIS*       MOCLDY    64  61  88 SE5       30.12F
THREE RIVERS*  FAIR      65  61  86 SE3       30.12S

$$
OHZ001>008-015>018-024>025-290800-
NORTHWEST OHIO

CITY           SKY/WX    TMP DP  RH WIND       PRES   REMARKS
WAUSEON*       FAIR      63  63 100 SE5       30.14F
DEFIANCE       MOCLDY    64  59  83 CALM      30.13F
FINDLAY        CLOUDY    63  59  87 SE5       30.13F
TOLEDO EXPRESS CLOUDY    63  59  87 SE5       30.13F
TOLEDO METCALF CLOUDY    65  58  78 CALM      30.16S
LIMA           CLOUDY    63  57  81 SE6       30.14F

$$
AND FOR LAKE MICHIGAN COASTAL AND OPEN LAKE BUOY OBSERVATIONS

STATION/POSITION TEMP    WIND        PRES    VSBY  WAVE
                 AIR SEA DIR/SP/G                  HT/PER
                 (F)     (DEG/KT/KT) (MB)    (MI)  (FT/S)
MICHIGAN CITY     69     110/  5/  6   N/A
BURNS HARBOR      70     160/  7/ 10 1019.0F
SAINT JOSEPH      66     150/  1/  4 1019.3F
SOUTH LAKE BUOY   68 68   80/ 12/ 12 1018.2F
4 MI NW BRIDGMAN  69 72  190/ 10/ 12   N/A           1
MICHIGAN CITY     69 71  160/  8/ 10   N/A           1

$$
&&


USA.gov is the U.S. government's official web portal to all federal, state and local government web resources and services.